User: anonymous   Login
Location: Wells
(51.2093°N, 2.6446°W)
Time: 03:37:19
(UTC+00:00)
Language:

DOVE 4 - Orbit

View from above orbital plane
View from above orbital plane
View from above satellite
View from above satellite

Ground track
Ground track

The orbit is defined by the following mean orbital elements,

1 39430U          26066.98587382 +.00000000 +00000-0 +42489-3 0 00002
2 39430  97.6567 273.7975 0130354  42.9558 318.1738 14.69091129    03
Epoch (UTC): 07 March 2026 23:39:39
Eccentricity: 0.0130354
inclination: 97.6567°
perigee height: 572 km
apogee height: 756 km
right ascension of ascending node: 273.7975°
argument of perigee: 42.9558°
revolutions per day: 14.69091129
mean anomaly at epoch: 318.1738°

The dashed part of the orbit path shows where the satellite is in the earth's shadow,  

DLR